Regional Weather Roundup
Issued by NWS Cleveland, OH

Home | Current Version | Previous Version | Graphics & Text | Print | Product List | Glossary On
Versions: 1 2 3 4 5 6 7 8 9 10 11 12 13 14 15 16 17 18 19 20 21 22 23 24 25 26 27 28 29 30 31 32 33 34 35 36 37 38 39 40 41 42 43 44 45 46 47 48 49 50
000
ASUS41 KCLE 061002
RWRCLE
OHIO REGIONAL WEATHER ROUNDUP
NATIONAL WEATHER SERVICE CLEVELAND, OH
500 AM EST FRI MAR 06 2015

NOTE: "FAIR" INDICATES FEW OR NO CLOUDS BELOW 12,000 FEET WITH NO
SIGNIFICANT WEATHER AND/OR OBSTRUCTIONS TO VISIBILITY.

OHZ001>008-015>018-024>027-034-035-043-044-061100-
   NORTHWEST OHIO

CITY           SKY/WX    TMP DP  RH WIND       PRES   REMARKS
DEFIANCE       PTCLDY     0  -5  79 CALM      30.51F
FINDLAY        MOCLDY     5   1  83 S3        30.50S
TOLEDO EXPRESS PTCLDY    -1  -5  82 CALM      30.50F
TOLEDO EXEC    MOCLDY     4  -2  76 S3        30.52S
LIMA           PTCLDY     6   2  83 SE6       30.49F FOG     WCI  -4
$$

OHZ009>014-019>023-028>033-038-089-061100-
   NORTHEAST OHIO

CITY           SKY/WX    TMP DP  RH WIND       PRES   REMARKS
CLE-HOPKINS    PTCLDY     5  -1  76 S6        30.53R WCI  -6
CLE-LAKEFRONT  PTCLDY     8   1  73 S6        30.52R WCI  -2
CUY CO. ARPT   NOT AVBL
LORAIN-ELYRIA  PTCLDY     1  -2  87 SW3       30.51R
ASHTABULA      MOCLDY    -5 -10  79 CALM      30.50R
AKRON-CANTON   PTCLDY     2  -3  80 S5        30.48R WCI  -8
WOOSTER        PTCLDY    -5 -10  79 CALM      30.49R
MANSFIELD      PTCLDY     4   0  83 S6        30.47R WCI  -7
YOUNGSTOWN     PTCLDY     1  -5  75 S6        30.47S WCI -10
$$

OHZ042-051>053-060>062-070>072-077>081-061100-
  SOUTHWEST OHIO

CITY           SKY/WX    TMP DP  RH WIND       PRES   REMARKS
CINC-COVINGTON PTCLDY     4   0  83 CALM      30.52S
CINC-LUNKEN    FOG        6   4  91 CALM      30.57F VSB 1/4
HAMILTON       PTCLDY     1  -3  83 CALM      30.56F
DAYTON         PTCLDY     9   4  80 CALM      30.50F
WRIGHT-PAT AFB PTCLDY     7   3  84 CALM      30.52F
DAYTON GENERAL PTCLDY     6   2  83 CALM      30.50F
WILMINGTON     PTCLDY     0  -5  79 CALM      30.51F
$$

OHZ036-037-039>041-045>050-054>059-063>069-073>076-082>088-061100-
  CENTRAL AND SOUTHEAST OHIO

CITY           SKY/WX    TMP DP  RH WIND       PRES   REMARKS
COLUMBUS       CLEAR      4   0  83 CALM      30.54R
OSU AIRPORT    PTCLDY     6   2  83 CALM      30.53R
BOLTON FIELD   PTCLDY   N/A N/A N/A CALM      30.54R
RICKENBACK AFB NOT AVBL
NEWARK         PTCLDY    -2  -6  83 CALM      30.53R
MARION         PTCLDY    -1  -6  79 S5        30.51R WCI -11
LANCASTER      PTCLDY    -4  -9  79 CALM      30.54R
ZANESVILLE     PTCLDY    -3  -7  82 CALM      30.52S
NEW PHILLY     MOCLDY     3  -3  76 SE3       30.53R
$$


USA.gov is the U.S. government's official web portal to all federal, state and local government web resources and services.